Location: Palombina Nuova
(43.6167°N, 13.4000°E)
Time: 00:09:36
(UTC+00:00)

BREEZE M DEB (TANK) - Pass Details

Date: 17 February 2020
Orbit: 314 x 13667 km, 49.6° (Epoch: 09 April)

Event Time Altitude Azimuth Distance (km) Brightness Sun altitude
Exits shadow 04:03:46 33° 356° (N) 878 3.8 -22.2°
Maximum altitude 04:04:09 34° 12° (NNE) 905 4.0 -22.1°
Drops below altitude 10° 04:09:34 10° 78° (ENE) 3,071 7.7 -21.2°
Sets 04:14:50 0° 86° (E) 5,444 9.5 -20.2°
